This is the latest recevied weather packets stored in our database for station/object F1AGU-13. If no packets are shown the sender has not sent any weather packets the latest 10 day(s).
| Time | Temp. | Humidity | Pressure | Rain* | Wind** | Luminosity | Snow |
|---|---|---|---|---|---|---|---|
| 1777771517 | 10.56° C | 67% | 1019.1 hPa | 0 mm | - | - | - |
| 1777770917 | 10.56° C | 68% | 1019.2 hPa | 0 mm | - | - | - |
| 1777770317 | 11.11° C | 66% | 1019.2 hPa | 0 mm | - | - | - |
| 1777769717 | 11.11° C | 66% | 1019.3 hPa | 0 mm | - | - | - |
| 1777769117 | 11.11° C | 65% | 1019.4 hPa | 0 mm | - | - | - |
| 1777768517 | 11.11° C | 64% | 1019.4 hPa | 0 mm | - | - | - |
| 1777767917 | 11.11° C | 66% | 1019.4 hPa | 0 mm | - | - | - |
| 1777767316 | 11.11° C | 69% | 1019.7 hPa | 0 mm | - | - | - |
| 1777766717 | 11.11° C | 67% | 1019.8 hPa | 0 mm | - | - | - |
| 1777766117 | 11.67° C | 64% | 1019.7 hPa | 0 mm | - | - | - |
| 1777765516 | 11.11° C | 66% | 1019.7 hPa | 0 mm | - | - | - |
| 1777764917 | 11.67° C | 66% | 1019.8 hPa | 0 mm | - | - | - |
| 1777764316 | 11.67° C | 66% | 1019.9 hPa | 0 mm | - | - | - |
| 1777763716 | 11.67° C | 66% | 1019.9 hPa | 0 mm | - | - | - |
| 1777763117 | 11.11° C | 68% | 1019.8 hPa | 0 mm | - | - | - |
| 1777762516 | 11.11° C | 69% | 1019.9 hPa | 0 mm | - | - | - |
| 1777761916 | 11.67° C | 69% | 1019.9 hPa | 0 mm | - | - | - |
| 1777761316 | 11.67° C | 69% | 1020 hPa | 0 mm | - | - | - |
| 1777760716 | 11.67° C | 70% | 1020.1 hPa | 0 mm | - | - | - |
| 1777760116 | 11.67° C | 69% | 1020.1 hPa | 0 mm | - | - | - |
| 1777759516 | 11.67° C | 70% | 1020 hPa | 0 mm | - | - | - |
| 1777758917 | 11.67° C | 71% | 1020.1 hPa | 0 mm | - | - | - |
| 1777758317 | 11.67° C | 72% | 1020.1 hPa | 0 mm | - | - | - |
| 1777757717 | 11.67° C | 73% | 1020 hPa | 0 mm | - | - | - |
| 1777757117 | 11.67° C | 74% | 1020 hPa | 0 mm | - | - | - |
* Rain latest hour (hover to see other rain measurements)
** Current wind speed in m/s (hover to see current wind gust speed)